Location: ?astrovice
(49.6513°N, 14.9287°E)
Time: 01:29:36
(UTC+00:00)

COSMOS 2406 - Pass Details

Date: 09 April 2020
Orbit: 842 x 865 km, 71.0° (Epoch: 03 June)

Event Time Altitude Azimuth Distance (km) Brightness Sun altitude
Exits shadow 19:13:09 20° 133° (SE) 1,883 4.4 -14.0°
Maximum altitude 19:15:16 24° 102° (ESE) 1,678 4.2 -14.3°
Drops below altitude 10° 19:19:45 10° 50° (NE) 2,488 5.5 -14.9°
Sets 19:22:37 0° 38° (NE) 3,433 6.3 -15.3°
